TimeCST,TemperatureF,Dew PointF,Humidity,Sea Level PressureIn,VisibilityMPH,Wind Direction,Wind SpeedMPH,Gust SpeedMPH,PrecipitationIn,Events,Conditions,WindDirDegrees,DateUTC
12:13 AM,17.6,15.8,93,29.77,5.0,South,11.5,-,N/A,Snow,Light Snow,170,2013-01-02 06:13:00
12:33 AM,17.6,15.8,93,29.77,7.0,South,11.5,-,N/A,Snow,Light Snow,180,2013-01-02 06:33:00
12:54 AM,17.6,15.8,93,29.76,10.0,South,11.5,-,N/A,,Overcast,180,2013-01-02 06:54:00
1:13 AM,17.6,15.8,93,29.75,5.0,South,12.7,-,N/A,Snow,Light Snow,180,2013-01-02 07:13:00
1:33 AM,17.6,15.8,93,29.75,2.5,South,12.7,-,N/A,Snow,Light Snow,180,2013-01-02 07:33:00
1:54 AM,17.6,15.8,93,29.74,2.5,South,12.7,-,N/A,Snow,Light Snow,180,2013-01-02 07:54:00
2:13 AM,17.6,15.8,93,29.74,2.0,South,13.8,-,N/A,Snow,Light Snow,180,2013-01-02 08:13:00
2:34 AM,17.6,15.8,93,29.75,2.0,South,13.8,-,N/A,Snow,Light Snow,180,2013-01-02 08:34:00
3:14 AM,17.6,15.8,93,29.75,2.5,South,11.5,-,N/A,,Overcast,170,2013-01-02 09:14:00
3:33 AM,17.6,15.8,93,29.75,3.0,South,11.5,-,N/A,,Overcast,180,2013-01-02 09:33:00
3:54 AM,17.6,15.8,93,29.75,10.0,South,11.5,-,N/A,,Overcast,170,2013-01-02 09:54:00
4:13 AM,17.6,15.8,93,29.74,10.0,South,11.5,-,N/A,,Overcast,170,2013-01-02 10:13:00
4:33 AM,17.6,15.8,93,29.74,5.0,South,12.7,-,N/A,,Overcast,170,2013-01-02 10:33:00
4:54 AM,17.6,17.6,100,29.75,2.5,South,10.4,-,N/A,,Overcast,180,2013-01-02 10:54:00
5:13 AM,17.6,17.6,100,29.75,2.5,South,10.4,-,N/A,,Overcast,180,2013-01-02 11:13:00
5:33 AM,17.6,17.6,100,29.75,3.0,South,11.5,-,N/A,,Overcast,180,2013-01-02 11:33:00
6:13 AM,17.6,17.6,100,29.76,5.0,South,9.2,-,N/A,,Overcast,180,2013-01-02 12:13:00
6:33 AM,17.6,15.8,93,29.76,5.0,South,9.2,-,N/A,,Overcast,180,2013-01-02 12:33:00
6:53 AM,17.6,15.8,93,29.76,7.0,South,6.9,-,N/A,,Overcast,180,2013-01-02 12:53:00
7:13 AM,17.6,17.6,100,29.77,4.0,South,5.8,-,N/A,,Overcast,190,2013-01-02 13:13:00
7:33 AM,19.4,17.6,93,29.77,2.5,South,6.9,-,N/A,,Overcast,180,2013-01-02 13:33:00
7:54 AM,19.4,17.6,93,29.78,2.5,South,4.6,-,N/A,,Overcast,190,2013-01-02 13:54:00
8:13 AM,19.4,17.6,93,29.78,2.5,South,4.6,-,N/A,,Overcast,190,2013-01-02 14:13:00
8:33 AM,19.4,17.6,93,29.78,3.0,South,4.6,-,N/A,,Overcast,190,2013-01-02 14:33:00
9:13 AM,19.4,17.6,93,29.80,2.5,South,3.5,-,N/A,,Overcast,190,2013-01-02 15:13:00
9:33 AM,19.4,17.6,93,29.81,2.0,Calm,Calm,-,N/A,,Overcast,0,2013-01-02 15:33:00
9:54 AM,19.4,17.6,93,29.82,2.0,Calm,Calm,-,N/A,,Overcast,0,2013-01-02 15:54:00
10:13 AM,19.4,17.6,93,29.83,2.0,Calm,Calm,-,N/A,Snow,Light Snow,0,2013-01-02 16:13:00
10:33 AM,19.4,17.6,93,29.84,4.0,Calm,Calm,-,N/A,Snow,Light Snow,0,2013-01-02 16:33:00
10:54 AM,19.4,17.6,93,29.84,4.0,WNW,3.5,-,N/A,,Overcast,300,2013-01-02 16:54:00
11:13 AM,19.4,17.6,93,29.85,4.0,NW,4.6,-,N/A,Snow,Light Snow,310,2013-01-02 17:13:00
11:33 AM,19.4,17.6,93,29.85,5.0,NW,4.6,-,N/A,Snow,Light Snow,320,2013-01-02 17:33:00
11:54 AM,19.4,17.6,93,29.85,5.0,NW,5.8,-,N/A,Snow,Light Snow,310,2013-01-02 17:54:00
12:13 PM,19.4,17.6,93,29.85,5.0,NW,6.9,-,N/A,Snow,Light Snow,310,2013-01-02 18:13:00
12:33 PM,19.4,17.6,93,29.85,5.0,NW,5.8,-,N/A,Snow,Light Snow,310,2013-01-02 18:33:00
12:54 PM,19.4,17.6,93,29.86,7.0,NW,6.9,-,N/A,Snow,Light Snow,310,2013-01-02 18:54:00
1:13 PM,19.4,17.6,93,29.87,10.0,NW,6.9,-,N/A,,Overcast,310,2013-01-02 19:13:00
1:33 PM,19.4,17.6,93,29.88,10.0,NW,10.4,-,N/A,,Overcast,320,2013-01-02 19:33:00
1:54 PM,19.4,17.6,93,29.88,5.0,NW,10.4,-,N/A,Snow,Light Snow,320,2013-01-02 19:54:00
2:13 PM,19.4,17.6,93,29.87,5.0,NNW,8.1,-,N/A,Snow,Light Snow,330,2013-01-02 20:13:00
2:33 PM,19.4,17.6,93,29.88,5.0,NW,8.1,-,N/A,Snow,Light Snow,310,2013-01-02 20:33:00
2:53 PM,19.4,17.6,93,29.89,7.0,NW,10.4,-,N/A,Snow,Light Snow,310,2013-01-02 20:53:00
3:13 PM,19.4,15.8,86,29.89,7.0,NW,11.5,-,N/A,Snow,Light Snow,310,2013-01-02 21:13:00
3:34 PM,17.6,15.8,93,29.92,10.0,NW,13.8,-,N/A,Snow,Light Snow,320,2013-01-02 21:34:00
3:53 PM,17.6,15.8,93,29.93,7.0,NW,17.3,-,N/A,Snow,Light Snow,310,2013-01-02 21:53:00
4:13 PM,17.6,15.8,93,29.95,5.0,NW,18.4,-,N/A,Snow,Light Snow,310,2013-01-02 22:13:00
4:34 PM,17.6,14.0,86,29.96,10.0,NNW,20.7,-,N/A,,Overcast,330,2013-01-02 22:34:00
4:53 PM,15.8,12.2,86,29.97,10.0,NW,18.4,-,N/A,Snow,Light Snow,320,2013-01-02 22:53:00
5:13 PM,15.8,12.2,86,29.98,10.0,NW,17.3,-,N/A,,Overcast,320,2013-01-02 23:13:00
5:34 PM,15.8,12.2,86,30.00,10.0,NW,18.4,-,N/A,,Overcast,320,2013-01-02 23:34:00
5:53 PM,15.8,12.2,86,30.01,10.0,NNW,20.7,-,N/A,,Overcast,330,2013-01-02 23:53:00
6:13 PM,15.8,12.2,86,30.02,10.0,NNW,20.7,-,N/A,,Overcast,330,2013-01-03 00:13:00
6:34 PM,15.8,10.4,79,30.04,7.0,NNW,17.3,-,N/A,,Overcast,340,2013-01-03 00:34:00
6:53 PM,14.0,10.4,86,30.04,7.0,NNW,16.1,-,N/A,Snow,Light Snow,330,2013-01-03 00:53:00
7:13 PM,14.0,10.4,86,30.05,7.0,NNW,17.3,20.7,N/A,Snow,Light Snow,340,2013-01-03 01:13:00
7:34 PM,14.0,10.4,86,30.05,4.0,North,16.1,-,N/A,Snow,Light Snow,350,2013-01-03 01:34:00
7:53 PM,14.0,10.4,86,30.06,7.0,NNW,12.7,-,N/A,Snow,Light Snow,340,2013-01-03 01:53:00
8:13 PM,12.2,8.6,85,30.05,10.0,NNW,19.6,-,N/A,,Overcast,340,2013-01-03 02:13:00
8:34 PM,12.2,8.6,85,30.07,10.0,NNW,16.1,-,N/A,,Overcast,340,2013-01-03 02:34:00
8:53 PM,12.2,8.6,85,30.07,10.0,NNW,16.1,-,N/A,,Overcast,340,2013-01-03 02:53:00
9:13 PM,12.2,8.6,85,30.08,10.0,NNW,15.0,-,N/A,,Overcast,340,2013-01-03 03:13:00
9:34 PM,12.2,8.6,85,30.09,10.0,NNW,13.8,-,N/A,Snow,Light Snow,340,2013-01-03 03:34:00
9:53 PM,12.2,8.6,85,30.09,10.0,NNW,12.7,-,N/A,,Overcast,330,2013-01-03 03:53:00
10:13 PM,10.4,6.8,85,30.09,10.0,NNW,13.8,-,N/A,,Overcast,340,2013-01-03 04:13:00
10:34 PM,10.4,6.8,85,30.09,10.0,NNW,13.8,-,N/A,,Overcast,330,2013-01-03 04:34:00
10:53 PM,10.4,6.8,85,30.10,10.0,NNW,12.7,-,N/A,,Overcast,340,2013-01-03 04:53:00
11:13 PM,10.4,6.8,85,30.11,10.0,NNW,11.5,-,N/A,,Overcast,330,2013-01-03 05:13:00
11:34 PM,10.4,6.8,85,30.12,10.0,NNW,15.0,-,N/A,,Overcast,340,2013-01-03 05:34:00
11:53 PM,10.4,6.8,85,30.12,10.0,NNW,16.1,-,N/A,Snow,Light Snow,330,2013-01-03 05:53:00